Wind_Speed
14 15 15 14 16 15 13 13 13 13 12 12 11 10 9 8 8 8 8 8 8 7 6 6 6 6 7 7 8 8 8 9 9 9 10 10 10 10 10 9 9 8 8 8 7 7 7 6 6
14 14 14 14 15 13 13 13 13 12 11 11 11 11 10 9 8 7 7 7 7 6 6 6 6 6 7 7 7 7 8 8 8 8 9 9 9 9 9 8 8 8 8 8 7 7 7 7 7
13 13 14 15 13 12 13 13 13 13 12 12 12 11 10 9 8 7 7 7 7 6 5 5 5 6 6 7 7 7 8 8 8 8 8 8 8 8 8 8 8 8 8 7 7 7 6 6 6
13 13 14 14 12 12 13 13 13 13 13 12 12 11 10 9 8 7 6 6 6 5 5 5 5 5 6 6 6 7 7 8 8 8 8 7 7 7 7 7 7 7 7 7 6 6 6 6 5
12 13 13 11 11 12 12 12 13 13 13 12 12 11 10 9 8 7 6 6 6 5 4 4 5 5 6 6 6 6 7 7 7 7 7 7 6 6 6 7 7 7 7 7 6 6 6 5 5
12 13 10 9 10 11 12 12 13 13 12 12 12 11 10 9 8 7 6 6 6 5 4 4 4 5 5 5 6 6 6 6 6 6 7 6 6 6 6 6 6 7 7 7 6 6 5 6 5
12 11 10 10 10 11 12 12 13 13 13 12 11 10 9 9 8 7 6 6 5 5 4 4 4 4 4 5 5 5 5 5 6 5 6 6 6 6 6 6 6 6 7 7 6 6 5 5 5
10 10 9 9 10 11 11 12 12 12 12 12 11 10 10 9 8 7 6 6 5 5 4 3 3 2 3 3 4 4 4 5 5 5 5 4 5 5 5 6 6 6 6 6 6 6 5 5 6
9 9 7 8 9 9 10 10 11 11 11 11 11 11 10 9 8 7 6 5 4 4 3 2 2 1 1 2 2 3 3 4 4 4 4 3 3 4 4 5 5 5 5 5 6 6 5 5 5
8 8 7 8 9 9 9 10 10 10 11 11 11 11 10 9 8 7 6 5 4 3 3 2 1 1 0 0 1 2 3 4 3 3 3 3 3 4 4 4 4 5 5 5 5 5 5 5 5
6 7 6 7 8 8 8 9 9 9 10 10 10 10 10 9 9 8 6 5 4 3 2 1 1 1 1 1 1 2 3 3 3 2 3 3 3 3 3 3 3 4 4 4 4 5 5 5 5
5 6 6 6 7 8 8 8 8 8 8 8 8 9 9 9 9 8 6 5 4 2 2 1 1 1 2 2 2 2 3 3 3 2 3 4 3 3 3 3 3 4 4 4 4 4 4 4 4
3 4 5 5 6 6 7 6 6 6 6 6 7 8 9 9 9 8 7 5 4 2 1 1 2 2 2 2 2 2 3 4 3 3 4 4 4 3 3 3 3 3 3 3 3 3 3 3 3
2 3 4 4 4 5 5 6 5 5 5 5 6 7 7 8 8 7 7 6 4 3 2 2 3 3 2 3 2 2 3 3 3 4 4 4 4 4 3 4 4 4 4 3 3 3 3 2 2
2 1 2 3 3 4 5 5 5 4 4 5 5 6 6 7 8 8 7 6 5 4 4 3 3 3 3 2 2 2 3 3 3 4 4 4 4 4 4 4 4 4 4 3 3 3 3 2 2
3 1 1 0 2 2 3 3 3 4 4 4 5 5 6 7 8 8 8 7 6 5 5 4 4 4 3 2 2 2 3 3 4 4 5 5 5 5 5 5 5 4 4 4 4 4 3 3 2
4 3 3 2 1 1 1 1 2 3 3 3 4 5 6 7 8 8 8 8 7 7 6 5 5 4 3 2 2 3 2 3 4 4 5 5 5 6 6 5 5 5 5 5 4 5 4 4 3
6 5 4 3 2 1 1 2 2 2 3 3 3 5 6 7 8 8 9 9 9 8 7 7 5 4 3 3 4 4 4 4 5 6 6 5 5 6 6 6 6 6 6 6 6 6 5 5 4
9 7 6 5 3 2 2 3 3 3 2 3 4 5 6 7 8 9 10 10 10 8 8 7 6 4 3 4 5 5 5 5 5 6 6 6 6 6 7 7 7 7 7 7 7 7 7 6 6
10 8 8 6 5 4 4 4 4 3 3 3 4 5 6 7 8 9 10 10 9 9 9 8 7 6 5 5 6 7 6 5 5 6 7 7 6 7 8 8 9 8 8 8 8 8 8 8 7
11 11 10 8 6 5 5 5 4 4 4 4 5 6 7 8 8 9 10 10 10 9 9 9 8 7 6 6 6 7 7 5 6 6 7 7 8 8 9 9 10 10 10 10 10 10 10 9 9
13 13 11 9 7 7 5 5 7 5 5 5 6 7 8 8 9 9 10 11 10 10 10 10 10 9 7 6 6 6 7 7 6 6 7 7 8 9 10 10 10 10 10 11 11 11 11 11 11
16 14 12 10 9 8 7 5 7 7 6 6 7 7 7 8 8 9 10 11 11 11 11 11 11 10 9 8 8 8 7 8 8 8 8 8 9 10 10 11 11 12 12 13 13 12 13 13 14
17 15 13 12 10 10 10 7 7 8 7 8 8 7 8 8 8 10 11 12 12 12 11 11 12 11 10 9 8 9 9 9 9 9 9 10 10 10 11 12 13 14 14 15 15 15 14 15 15
18 16 14 13 12 12 11 9 9 9 8 9 9 9 8 9 9 10 11 13 13 12 11 10 11 10 9 9 8 8 9 9 9 10 10 11 11 12 12 13 14 15 15 16 16 16 16 17 17
19 18 16 14 12 13 13 11 10 9 9 9 9 9 10 10 11 11 12 13 13 12 11 10 11 10 9 8 8 8 9 10 10 11 11 12 12 13 14 15 15 15 16 17 17 17 18 18 19
22 20 18 16 15 13 14 12 11 10 10 10 10 10 11 11 12 12 13 12 13 12 10 10 10 10 9 9 9 9 9 10 11 12 12 13 13 14 15 15 17 17 17 18 18 18 18 19 19
24 22 21 18 16 14 14 12 11 11 11 11 10 11 11 12 12 13 12 12 13 12 10 10 10 10 9 10 10 10 10 11 12 13 14 14 14 14 15 16 17 18 18 19 19 19 19 20 21
25 23 21 19 18 15 13 13 13 13 12 11 11 11 12 12 12 13 13 13 12 12 11 10 11 11 10 11 11 11 12 12 13 13 13 14 14 15 16 16 17 18 19 19 19 19 19 20 21
26 24 23 21 20 17 15 15 15 14 13 12 12 12 13 12 13 13 13 13 12 12 11 11 11 11 10 11 12 12 13 13 13 13 13 13 14 15 16 17 18 18 18 18 19 20 21 22 22
Wind_Direction
81 76 75 73 70 71 75 77 78 78 79 81 83 87 91 97 104 109 114 115 116 116 117 119 121 123 122 120 117 114 110 106 104 104 103 101 97 93 91 90 91 91 92 92 91 89 87 86 83
80 77 74 69 72 70 73 75 75 77 80 82 81 80 83 86 98 107 115 116 117 118 119 125 129 130 127 122 118 117 114 110 108 108 106 104 100 97 96 94 94 92 91 91 91 89 86 84 84
79 76 69 67 71 73 74 73 73 75 77 78 78 78 78 81 88 99 110 115 119 123 124 132 137 137 133 125 118 118 116 111 108 108 108 105 102 98 97 98 97 93 91 91 90 89 87 86 85
80 75 69 69 68 71 71 70 70 72 71 72 73 74 73 77 82 90 103 111 115 121 130 138 141 141 137 129 124 122 118 114 110 107 105 104 102 99 97 99 99 98 92 90 88 87 87 86 84
83 77 72 68 64 65 66 66 65 66 65 65 67 70 71 75 78 84 96 109 112 113 126 137 144 143 138 133 132 126 121 117 113 110 107 106 105 102 98 98 98 97 95 92 91 89 88 87 90
86 79 78 69 61 62 64 64 62 62 62 62 63 66 70 72 75 80 85 99 103 107 120 133 145 149 142 137 135 128 125 122 118 114 111 109 110 106 102 101 97 96 97 95 96 94 91 94 95
85 83 78 68 60 59 63 61 62 62 60 61 61 62 64 68 71 76 80 92 103 109 118 133 146 147 144 140 139 138 133 130 126 120 115 111 111 109 105 103 98 98 98 98 98 99 97 96 97
86 79 70 63 59 60 61 60 60 61 59 59 59 60 62 65 68 72 78 89 102 109 117 128 137 130 129 140 143 148 146 144 140 131 124 117 119 113 107 104 99 96 97 100 99 99 97 94 96
87 82 71 69 65 60 59 58 57 57 57 57 58 59 62 64 64 68 73 84 99 109 110 126 132 127 117 135 159 162 160 159 157 151 140 133 136 124 114 111 105 99 101 103 102 100 96 96 96
91 90 79 72 73 65 60 57 57 55 55 54 55 58 61 60 62 63 64 74 92 105 104 115 105 79 42 347 198 191 177 173 168 165 156 146 149 131 122 119 113 108 108 107 104 102 99 100 97
95 95 79 71 73 68 62 56 53 52 53 53 52 55 58 57 59 59 60 69 81 94 91 85 63 27 350 324 280 212 197 193 181 172 170 159 152 137 132 130 124 122 120 115 110 112 108 105 100
101 94 79 69 69 66 63 56 51 50 52 54 53 51 53 52 52 54 56 57 64 77 79 45 13 328 330 321 311 238 213 204 198 192 193 179 157 153 151 154 144 135 131 126 121 118 119 117 105
109 97 80 68 66 65 65 57 49 47 52 56 51 49 48 47 45 45 45 42 44 48 47 2 331 299 303 309 296 253 231 224 227 216 201 187 180 172 175 172 165 158 152 147 140 131 131 125 111
140 105 79 66 64 61 58 52 45 42 50 50 45 43 43 40 37 34 34 30 20 21 1 334 327 302 293 301 289 271 247 244 250 216 199 198 198 199 196 195 184 175 168 166 160 150 138 134 126
196 140 89 65 57 51 48 46 41 38 42 39 36 38 39 32 30 24 23 22 14 1 342 325 315 307 295 293 286 264 248 252 255 227 215 213 210 210 202 202 191 182 174 174 177 173 164 160 149
219 213 187 50 43 36 41 24 19 28 30 30 24 24 23 20 16 14 14 14 7 356 340 324 313 306 299 289 302 271 245 242 241 232 223 223 223 222 213 214 205 197 193 193 193 194 193 185 181
229 220 225 254 349 8 28 338 346 15 21 14 11 8 7 9 5 7 7 2 356 346 338 323 310 309 291 283 296 285 251 235 234 231 229 232 234 228 224 221 214 209 207 213 215 217 219 223 224
227 228 235 253 277 277 290 304 317 358 3 357 357 355 355 357 355 353 353 350 345 347 344 339 319 291 278 268 276 278 264 253 244 236 236 240 235 228 224 222 220 219 223 227 229 231 232 239 243
225 231 244 255 263 264 273 298 311 317 330 338 336 334 337 342 341 342 342 344 343 345 341 336 333 314 299 276 273 278 270 260 246 243 242 242 242 232 228 230 228 226 230 234 239 242 243 247 252
229 237 248 258 260 265 278 294 292 306 312 313 312 314 317 327 330 332 335 337 341 340 336 333 331 320 303 292 281 276 269 259 247 244 243 243 244 239 234 236 235 234 236 238 243 246 249 251 253
232 236 244 254 263 265 277 293 287 293 300 301 303 306 308 314 317 322 326 331 329 327 326 327 330 321 306 296 290 275 264 262 251 248 248 249 249 247 246 245 242 243 244 245 246 250 251 254 255
234 238 245 253 257 260 255 263 288 291 296 298 297 298 301 311 313 317 322 328 325 318 319 322 320 313 308 303 304 291 263 255 255 253 256 258 257 255 253 250 247 247 248 249 251 254 254 255 257
234 237 242 249 250 252 257 249 272 283 291 297 299 300 299 308 313 317 321 324 324 318 310 310 311 307 303 294 291 285 274 261 260 259 259 264 264 260 255 254 252 252 252 252 255 258 258 258 260
234 237 242 248 250 251 255 253 263 272 281 286 294 297 299 305 312 318 321 324 321 320 311 306 309 305 301 291 283 279 272 268 269 266 266 270 268 262 258 259 260 259 258 259 260 264 263 264 263
232 234 239 244 248 251 258 257 258 267 272 276 283 290 292 300 309 316 319 322 322 318 314 308 308 303 297 292 282 277 271 268 269 269 271 271 268 266 266 267 267 267 264 264 267 269 268 266 265
232 232 231 235 246 254 259 258 261 266 272 275 279 286 289 295 304 307 313 316 319 315 312 309 309 303 296 292 283 278 272 271 270 268 269 270 269 272 272 272 271 270 267 266 268 270 271 270 269
232 231 229 236 239 242 255 259 261 265 270 273 278 284 287 291 300 302 307 312 314 314 309 308 310 304 291 288 285 281 275 271 271 268 269 269 272 274 275 274 272 272 271 269 270 270 271 270 270
232 233 233 233 238 242 254 259 261 263 265 269 276 282 284 288 293 297 303 309 310 310 307 302 306 303 294 287 285 281 276 273 271 273 275 275 275 277 277 279 276 274 272 271 270 271 272 272 271
232 233 234 234 236 238 251 260 260 262 264 267 271 276 282 286 290 295 299 303 305 307 307 302 300 299 292 286 284 280 274 274 275 277 276 275 275 277 275 278 277 273 272 270 270 271 274 274 274
232 233 235 236 241 240 241 256 263 261 263 266 269 272 277 283 288 291 295 297 301 305 304 304 302 301 295 290 289 287 280 275 276 276 277 280 279 277 275 276 277 277 275 271 272 273 275 276 275
Height
5910 5909 5909 5910 5911 5911 5909 5908 5906 5905 5904 5903 5902 5901 5901 5902 5902 5904 5902 5901 5901 5902 5902 5902 5902 5902 5902 5902 5902 5902 5902 5902 5901 5901 5901 5901 5901 5901 5901 5901 5901 5901 5901 5901 5901 5902 5902 5902 5902
5912 5911 5912 5912 5913 5913 5911 5909 5908 5907 5906 5904 5903 5903 5902 5902 5902 5902 5902 5902 5902 5902 5903 5903 5903 5903 5903 5903 5903 5903 5903 5902 5902 5902 5902 5902 5902 5902 5902 5902 5902 5902 5902 5902 5902 5902 5902 5903 5902
5913 5913 5915 5915 5915 5914 5913 5911 5909 5908 5907 5905 5904 5904 5904 5903 5903 5902 5903 5903 5903 5903 5903 5904 5904 5904 5904 5904 5903 5903 5903 5903 5903 5903 5903 5903 5903 5902 5902 5903 5903 5903 5903 5903 5903 5903 5903 5903 5903
5915 5916 5917 5918 5916 5915 5914 5912 5910 5909 5908 5906 5906 5905 5904 5904 5904 5904 5903 5903 5903 5904 5904 5904 5905 5905 5905 5904 5904 5904 5904 5904 5904 5904 5903 5903 5903 5903 5903 5904 5904 5904 5904 5904 5904 5904 5904 5904 5904
5917 5918 5920 5920 5918 5917 5915 5913 5912 5910 5909 5908 5907 5906 5905 5904 5904 5904 5904 5904 5904 5904 5905 5905 5905 5905 5905 5905 5905 5905 5905 5905 5905 5904 5904 5904 5904 5904 5904 5904 5904 5904 5904 5905 5905 5905 5905 5905 5905
5920 5921 5924 5922 5920 5918 5916 5914 5913 5912 5910 5909 5908 5907 5906 5905 5905 5905 5904 5904 5904 5905 5905 5905 5906 5906 5906 5906 5906 5906 5906 5905 5905 5905 5905 5905 5905 5905 5905 5905 5905 5905 5905 5905 5905 5905 5906 5906 5906
5921 5923 5924 5923 5921 5920 5918 5916 5914 5913 5912 5911 5909 5908 5907 5906 5906 5905 5905 5905 5905 5905 5906 5906 5906 5906 5906 5906 5906 5906 5906 5906 5906 5906 5906 5905 5905 5905 5906 5906 5906 5906 5906 5906 5906 5906 5906 5906 5906
5922 5924 5925 5924 5923 5921 5920 5917 5916 5914 5913 5912 5911 5909 5908 5907 5907 5906 5905 5905 5905 5906 5906 5906 5907 5907 5906 5906 5906 5906 5906 5906 5906 5906 5906 5906 5906 5906 5906 5906 5906 5906 5906 5906 5907 5907 5907 5907 5907
5923 5926 5926 5925 5924 5922 5920 5919 5917 5916 5914 5913 5912 5910 5909 5908 5907 5907 5906 5906 5906 5907 5907 5907 5907 5907 5907 5906 5906 5906 5906 5906 5906 5906 5906 5906 5906 5906 5906 5906 5907 5907 5907 5907 5908 5908 5908 5908 5908
5924 5927 5926 5925 5924 5923 5921 5920 5919 5917 5916 5914 5913 5912 5910 5909 5908 5908 5908 5907 5907 5907 5907 5907 5907 5907 5907 5906 5906 5906 5906 5906 5906 5906 5906 5906 5906 5906 5907 5907 5907 5907 5908 5908 5908 5908 5908 5908 5908
5925 5926 5926 5925 5924 5923 5922 5921 5920 5918 5917 5916 5915 5914 5912 5910 5909 5909 5908 5908 5908 5908 5908 5908 5908 5907 5907 5907 5906 5906 5906 5906 5906 5906 5906 5906 5906 5906 5907 5907 5907 5908 5908 5908 5908 5908 5909 5909 5909
5925 5926 5926 5925 5925 5924 5923 5922 5921 5920 5919 5917 5916 5915 5913 5912 5911 5910 5909 5909 5909 5908 5908 5908 5908 5907 5907 5906 5906 5906 5906 5906 5906 5905 5906 5906 5906 5907 5907 5907 5907 5908 5908 5909 5909 5909 5909 5909 5910
5925 5926 5926 5926 5925 5925 5924 5923 5922 5920 5919 5918 5917 5916 5914 5913 5912 5911 5910 5910 5909 5909 5908 5908 5907 5907 5906 5906 5906 5906 5905 5905 5905 5905 5905 5906 5906 5907 5907 5907 5907 5908 5908 5909 5909 5909 5909 5910 5910
5925 5925 5926 5926 5925 5925 5924 5923 5922 5921 5920 5919 5918 5917 5915 5914 5913 5912 5911 5910 5910 5909 5908 5907 5907 5906 5906 5905 5905 5905 5905 5905 5905 5905 5905 5905 5906 5906 5907 5907 5907 5908 5908 5908 5909 5909 5910 5910 5910
5924 5925 5926 5926 5926 5925 5925 5924 5923 5922 5920 5919 5918 5917 5916 5915 5914 5913 5912 5911 5910 5909 5908 5906 5906 5905 5905 5904 5904 5904 5904 5904 5904 5904 5905 5905 5905 5906 5906 5907 5907 5907 5908 5908 5909 5909 5910 5910 5910
5924 5925 5926 5926 5926 5925 5927 5926 5924 5922 5921 5920 5919 5918 5916 5915 5914 5913 5912 5911 5910 5908 5907 5906 5905 5904 5904 5904 5903 5903 5903 5903 5903 5904 5904 5904 5905 5905 5906 5906 5907 5907 5907 5908 5909 5909 5909 5910 5910
5923 5925 5926 5926 5925 5925 5926 5926 5924 5922 5921 5920 5919 5918 5917 5916 5914 5913 5912 5911 5909 5908 5906 5905 5904 5903 5903 5903 5902 5902 5902 5902 5902 5903 5903 5903 5904 5904 5905 5906 5906 5906 5907 5907 5908 5909 5909 5909 5910
5923 5924 5924 5925 5924 5925 5925 5925 5924 5922 5921 5920 5919 5918 5917 5916 5914 5913 5912 5910 5909 5907 5905 5904 5903 5902 5902 5901 5901 5901 5901 5901 5901 5902 5902 5902 5902 5903 5904 5904 5905 5905 5906 5907 5907 5908 5908 5909 5909
5920 5922 5923 5923 5923 5924 5924 5924 5923 5922 5921 5920 5919 5918 5917 5915 5914 5913 5911 5910 5908 5906 5905 5903 5902 5902 5901 5900 5900 5900 5900 5900 5900 5900 5901 5901 5901 5902 5902 5903 5904 5904 5905 5906 5906 5907 5907 5908 5908
5917 5919 5921 5921 5922 5923 5923 5923 5923 5922 5921 5920 5919 5918 5917 5915 5914 5912 5911 5909 5908 5906 5905 5903 5902 5901 5900 5899 5899 5899 5899 5898 5899 5899 5899 5899 5900 5900 5901 5902 5902 5903 5904 5904 5905 5906 5906 5907 5907
5915 5917 5918 5919 5920 5921 5922 5922 5922 5921 5920 5919 5918 5917 5916 5915 5913 5912 5910 5908 5907 5905 5903 5902 5901 5900 5899 5898 5897 5897 5897 5897 5897 5898 5898 5898 5898 5899 5899 5900 5900 5901 5902 5903 5903 5904 5904 5905 5905
5912 5914 5916 5917 5919 5920 5921 5924 5921 5920 5919 5918 5917 5916 5915 5914 5913 5911 5909 5907 5906 5904 5902 5901 5900 5899 5897 5896 5896 5895 5896 5896 5896 5896 5896 5896 5896 5897 5897 5898 5899 5899 5900 5901 5901 5902 5902 5903 5903
5910 5911 5913 5915 5917 5919 5919 5921 5922 5918 5918 5917 5916 5915 5914 5913 5912 5910 5908 5907 5905 5903 5901 5900 5898 5897 5896 5895 5894 5894 5894 5894 5894 5894 5895 5895 5895 5895 5896 5896 5896 5897 5898 5898 5899 5899 5899 5900 5900
5906 5909 5910 5912 5915 5917 5917 5918 5919 5917 5916 5915 5914 5914 5913 5912 5911 5909 5907 5905 5903 5901 5899 5898 5896 5895 5894 5893 5893 5892 5892 5892 5892 5892 5893 5893 5893 5893 5894 5894 5894 5895 5895 5895 5895 5896 5896 5896 5896
5903 5906 5909 5911 5913 5915 5914 5915 5916 5914 5914 5913 5913 5912 5911 5910 5909 5908 5906 5904 5902 5900 5898 5896 5895 5893 5892 5891 5891 5890 5890 5890 5890 5890 5891 5891 5891 5891 5892 5891 5891 5892 5892 5892 5892 5892 5892 5892 5892
5900 5903 5908 5911 5913 5913 5911 5912 5913 5912 5911 5911 5910 5910 5909 5909 5908 5906 5905 5903 5900 5898 5896 5895 5893 5891 5890 5889 5889 5888 5888 5888 5888 5888 5888 5888 5888 5889 5889 5889 5888 5888 5888 5888 5888 5888 5888 5888 5888
5895 5898 5903 5906 5907 5909 5909 5909 5909 5909 5909 5908 5908 5908 5907 5906 5905 5904 5902 5900 5898 5896 5894 5893 5892 5890 5888 5888 5887 5886 5886 5886 5886 5885 5885 5885 5886 5886 5885 5885 5885 5885 5884 5884 5884 5884 5884 5884 5884
5891 5894 5897 5901 5903 5906 5906 5906 5907 5906 5906 5906 5905 5905 5904 5904 5903 5901 5900 5898 5896 5894 5892 5891 5890 5888 5887 5886 5885 5884 5883 5883 5883 5883 5882 5882 5882 5882 5882 5881 5881 5881 5880 5880 5880 5880 5880 5879 5879
5887 5890 5893 5896 5899 5902 5905 5906 5903 5903 5903 5903 5903 5902 5902 5901 5900 5898 5897 5895 5894 5892 5890 5889 5888 5887 5885 5884 5883 5882 5881 5881 5880 5880 5879 5879 5879 5879 5878 5877 5877 5876 5876 5876 5875 5875 5875 5874 5874
5881 5885 5888 5892 5894 5897 5900 5904 5898 5899 5899 5899 5899 5899 5899 5898 5897 5896 5894 5893 5891 5889 5888 5887 5886 5884 5883 5882 5881 5880 5878 5878 5877 5876 5876 5875 5875 5874 5874 5874 5873 5872 5872 5871 5871 5870 5870 5869 5868